Zurück zum Katalog

COSMOS 1867 COOLANT

AktivLEO
NORAD 39673·DEBRIS·🇷🇺 Russia

Gestartet Jul 10, 1987 von Baikonur Cosmodrome

Loading…

Nächste Überflüge (nächste 24 Stunden)

TLE

AktuellSource: Space-Track

Epoche: Sep 13, 2026, 03:15 UTC

1 39673U 87060AL  26256.13579504  .00000138  00000-0  85549-4 0  9991
2 39673  65.0102 126.2711 0018235 282.0530  77.8512 14.33827623649517

Verfolge COSMOS 1867 COOLANT in Echtzeit mit AllMySat

Download on the App Store